Flag for Canada Weather past 2 weeks in Sidney, British Columbia, Canada

Now
57 °F

Clear.


Feels Like: 57 °F
Forecast: 57 / 77 °F
Wind: 5 mph from West

Location: Victoria Int. Airportb. C.

Current Time: Jul 28, 2014 at 5:24:40 AM

Latest Report: Jul 28, 2014 at 4:00 AM


Visibility: 30 mi

Pressure: 30.11 "Hg

Humidity: 82%

Dew point: 52 °F

Location of SidneyLocation

Historic Weather in Sidney — Graph

°F

Sidney temperature yesterday

Maximum temperature yesterday: 79 °F (at 5:00 PM)
Minimum temperature yesterday: 54 °F (at 6:00 AM)
Average temperature yesterday: 67 °F

Past Weeks' High & Low Weather Summary

 TemperatureHumidityPressure
High84 °F (Jul 13, 3:00 PM)94% (Jul 13, 4:00 AM)30.21 "Hg (Jul 13, 4:00 AM)
Low52 °F (Jul 15, 5:00 AM)39% (Jul 27, 6:00 PM)29.90 "Hg (Jul 16, 9:00 PM)
Average62 °F73%30.04 "Hg
* Reported Jul 13 4:00 AM — Jul 28 4:00 AM, Sidney, Weather by CustomWeather, © 2014

Note: Actual official high and low records may vary slightly from our data, if they occured in-between our weather recording intervals... More about our weather records

Advertising

Sidney weather history for previous 24 hours

 ConditionsComfort  
Time TempWeatherWind HumidityBarometerVisibility
4:00 AM
Jul 28
57 °FClear.5 mph82%30.11 "Hg30 mi
3:00 AM57 °FClear.3 mph82%30.10 "Hg30 mi
2:00 AM57 °FClear.No wind82%30.10 "Hg30 mi
1:00 AM61 °FClear.2 mph77%30.10 "Hg30 mi
12:00 AM61 °FClear.No wind72%30.10 "Hg30 mi
11:00 PM
Jul 27
63 °FClear.No wind73%30.09 "Hg30 mi
10:00 PM66 °FClear.No wind64%30.09 "Hg30 mi
9:00 PM72 °FPassing clouds.2 mph53%30.09 "Hg30 mi
8:00 PM72 °FPassing clouds.5 mph53%30.08 "Hg30 mi
7:00 PM79 °FPassing clouds.5 mph39%30.09 "Hg30 mi
6:00 PM79 °FPassing clouds.6 mph39%30.10 "Hg30 mi
5:00 PM79 °FPassing clouds.6 mph45%30.11 "Hg30 mi
4:00 PM77 °FPassing clouds.6 mph47%30.13 "Hg30 mi
3:00 PM77 °FPassing clouds.7 mph47%30.14 "Hg30 mi
2:00 PM77 °FPassing clouds.9 mph47%30.16 "Hg30 mi
1:00 PM75 °FPassing clouds.8 mph50%30.17 "Hg30 mi
12:00 PM73 °FPassing clouds.8 mph53%30.18 "Hg30 mi
11:00 AM72 °FSunny.5 mph57%30.19 "Hg30 mi
10:00 AM70 °FSunny.3 mph60%30.20 "Hg30 mi
9:00 AM66 °FSunny.7 mph68%30.21 "Hg30 mi
8:00 AM63 °FPassing clouds.7 mph77%30.21 "Hg30 mi
7:00 AM59 °FSunny.3 mph88%30.20 "Hg30 mi
6:00 AM54 °FClear.3 mph88%30.19 "Hg30 mi
5:00 AM57 °FClear.6 mph82%30.18 "Hg30 mi
Weather by CustomWeather, © 2014

See weather overviewHow to use our weather pages